Time,TemperatureF,DewpointF,PressureIn,WindDirection,WindDirectionDegrees,WindSpeedMPH,WindSpeedGustMPH,Humidity,HourlyPrecipIn,Conditions,Clouds,dailyrainin,SolarRadiationWatts/m^2,SoftwareType,DateUTC
2013-07-02 00:02:00,64.0,57.0,29.99,NE,34,4.0,13.0,78,0.00,,,0.00,0.000000,,2013-07-02 04:02:00,
2013-07-02 00:11:00,64.0,57.0,29.99,ENE,68,4.0,15.0,79,0.00,,,0.00,0.000000,,2013-07-02 04:11:00,
2013-07-02 00:32:00,64.0,58.0,29.98,NNE,13,5.0,17.0,80,0.00,,,0.00,0.000000,,2013-07-02 04:32:00,
2013-07-02 00:42:00,64.0,58.0,29.98,NNE,13,5.0,17.0,80,0.00,,,0.00,0.000000,,2013-07-02 04:42:00,
2013-07-02 00:54:00,64.0,58.0,29.98,NNE,13,5.0,17.0,80,0.00,,,0.00,0.000000,,2013-07-02 04:54:00,
2013-07-02 01:01:00,63.0,58.0,29.99,East,83,2.0,14.0,83,0.00,,,0.00,0.000000,,2013-07-02 05:01:00,
2013-07-02 01:11:00,63.0,58.0,29.99,NNE,30,1.0,15.0,84,0.00,,,0.00,0.000000,,2013-07-02 05:11:00,
2013-07-02 01:22:00,63.0,58.0,29.99,ENE,60,1.0,7.0,84,0.00,,,0.00,0.000000,,2013-07-02 05:22:00,
2013-07-02 01:32:00,63.0,58.0,29.98,NE,45,5.0,8.0,85,0.00,,,0.00,0.000000,,2013-07-02 05:32:00,
2013-07-02 01:43:00,63.0,58.0,29.98,NE,45,5.0,8.0,85,0.00,,,0.00,0.000000,,2013-07-02 05:43:00,
2013-07-02 01:53:00,63.0,58.0,29.98,ENE,58,1.0,13.0,84,0.00,,,0.00,0.000000,,2013-07-02 05:53:00,
2013-07-02 02:12:00,63.0,57.0,29.98,NE,54,7.0,14.0,82,0.00,,,0.00,0.000000,,2013-07-02 06:12:00,
2013-07-02 02:23:00,63.0,57.0,29.98,NE,44,4.0,14.0,81,0.00,,,0.00,0.000000,,2013-07-02 06:23:00,
2013-07-02 02:34:00,63.0,57.0,29.98,NE,44,4.0,14.0,81,0.00,,,0.00,0.000000,,2013-07-02 06:34:00,
2013-07-02 02:43:00,63.0,58.0,29.98,NE,47,6.0,11.0,83,0.00,,,0.00,0.000000,,2013-07-02 06:43:00,
2013-07-02 02:53:00,62.0,57.0,29.97,ENE,60,7.0,16.0,83,0.00,,,0.00,0.000000,,2013-07-02 06:53:00,
2013-07-02 03:01:00,62.0,57.0,29.97,NE,44,2.0,12.0,84,0.00,,,0.00,0.000000,,2013-07-02 07:01:00,
2013-07-02 03:12:00,62.0,57.0,29.97,NE,44,2.0,12.0,84,0.00,,,0.00,0.000000,,2013-07-02 07:12:00,
2013-07-02 03:22:00,62.0,57.0,29.97,NE,49,5.0,12.0,84,0.00,,,0.00,0.000000,,2013-07-02 07:22:00,
2013-07-02 03:34:00,62.0,57.0,29.97,NE,49,5.0,12.0,84,0.00,,,0.00,0.000000,,2013-07-02 07:34:00,
2013-07-02 03:44:00,62.0,58.0,29.96,NE,37,3.0,12.0,86,0.00,,,0.00,0.000000,,2013-07-02 07:44:00,
2013-07-02 03:53:00,62.0,58.0,29.96,NE,40,7.0,11.0,87,0.01,,,0.01,0.000000,,2013-07-02 07:53:00,
2013-07-02 04:02:00,61.0,57.0,29.96,NE,38,0.0,12.0,88,0.01,,,0.01,0.000000,,2013-07-02 08:02:00,
2013-07-02 04:12:00,61.0,57.0,29.96,NE,38,0.0,12.0,88,0.01,,,0.01,0.000000,,2013-07-02 08:12:00,
2013-07-02 04:44:00,61.0,58.0,29.96,NE,49,3.0,8.0,89,0.01,,,0.01,0.000000,,2013-07-02 08:44:00,
2013-07-02 04:53:00,61.0,58.0,29.97,NE,44,4.0,9.0,90,0.01,,,0.02,0.000000,,2013-07-02 08:53:00,
2013-07-02 05:02:00,61.0,58.0,29.97,NE,44,4.0,9.0,90,0.01,,,0.02,0.000000,,2013-07-02 09:02:00,
2013-07-02 05:11:00,61.0,59.0,29.96,NE,49,2.0,9.0,92,0.06,,,0.07,0.000000,,2013-07-02 09:11:00,
2013-07-02 05:33:00,60.0,58.0,29.97,NE,48,3.0,5.0,93,0.07,,,0.08,0.000000,,2013-07-02 09:33:00,
2013-07-02 05:43:00,60.0,58.0,29.97,NE,48,2.0,4.0,94,0.07,,,0.08,0.000000,,2013-07-02 09:43:00,
2013-07-02 05:52:00,60.0,58.0,29.98,NE,49,1.0,11.0,94,0.06,,,0.08,0.000000,,2013-07-02 09:52:00,
2013-07-02 06:01:00,60.0,58.0,29.98,NE,49,1.0,11.0,94,0.06,,,0.08,0.000000,,2013-07-02 10:01:00,
2013-07-02 06:11:00,60.0,58.0,29.98,ENE,58,3.0,5.0,94,0.11,,,0.18,0.000000,,2013-07-02 10:11:00,
2013-07-02 06:33:00,60.0,59.0,29.97,NE,40,4.0,13.0,95,0.20,,,0.28,0.000000,,2013-07-02 10:33:00,
2013-07-02 06:44:00,60.0,59.0,29.98,NE,37,6.0,11.0,95,0.23,,,0.31,0.000000,,2013-07-02 10:44:00,
2013-07-02 06:52:00,60.0,59.0,29.98,NNE,15,5.0,10.0,96,0.25,,,0.33,0.000000,,2013-07-02 10:52:00,
2013-07-02 07:11:00,60.0,59.0,29.98,NNE,26,5.0,10.0,96,0.17,,,0.33,5.000000,,2013-07-02 11:11:00,
2013-07-02 07:33:00,60.0,59.0,29.98,NNE,28,6.0,11.0,96,0.05,,,0.33,11.000000,,2013-07-02 11:33:00,
2013-07-02 07:42:00,59.0,58.0,29.98,NE,41,6.0,10.0,96,0.03,,,0.34,18.000000,,2013-07-02 11:42:00,
2013-07-02 07:52:00,59.0,58.0,29.98,NNE,29,9.0,11.0,96,0.01,,,0.34,23.000000,,2013-07-02 11:52:00,
2013-07-02 08:01:00,59.0,58.0,29.98,NNE,29,9.0,11.0,96,0.01,,,0.34,23.000000,,2013-07-02 12:01:00,
2013-07-02 08:11:00,59.0,58.0,29.99,NE,44,6.0,11.0,96,0.16,,,0.49,21.000000,,2013-07-02 12:11:00,
2013-07-02 08:23:00,59.0,58.0,29.99,NNE,18,8.0,11.0,96,0.19,,,0.52,30.000000,,2013-07-02 12:23:00,
2013-07-02 08:43:00,59.0,58.0,29.99,NNE,15,10.0,13.0,97,0.24,,,0.58,88.000000,,2013-07-02 12:43:00,
2013-07-02 08:52:00,59.0,58.0,29.99,NNE,32,7.0,13.0,97,0.24,,,0.58,51.000000,,2013-07-02 12:52:00,
2013-07-02 09:01:00,59.0,58.0,29.99,NNE,32,7.0,13.0,97,0.24,,,0.58,51.000000,,2013-07-02 13:01:00,
2013-07-02 09:11:00,59.0,58.0,30.00,NNE,30,6.0,13.0,97,0.11,,,0.58,40.000000,,2013-07-02 13:11:00,
2013-07-02 09:34:00,59.0,58.0,29.99,NE,35,8.0,14.0,97,0.06,,,0.58,65.000000,,2013-07-02 13:34:00,
2013-07-02 09:43:00,60.0,59.0,30.00,NNE,31,4.0,10.0,97,0.00,,,0.58,42.000000,,2013-07-02 13:43:00,
2013-07-02 10:02:00,60.0,59.0,30.00,NE,37,2.0,14.0,97,0.00,,,0.58,72.000000,,2013-07-02 14:02:00,
2013-07-02 10:11:00,60.0,59.0,30.00,NE,49,4.0,7.0,97,0.00,,,0.58,40.000000,,2013-07-02 14:11:00,
2013-07-02 10:33:00,60.0,59.0,30.00,ENE,59,0.0,6.0,97,0.00,,,0.58,109.000000,,2013-07-02 14:33:00,
2013-07-02 10:43:00,60.0,59.0,30.01,NE,56,1.0,7.0,97,0.00,,,0.58,81.000000,,2013-07-02 14:43:00,
2013-07-02 10:53:00,61.0,60.0,30.01,ENE,59,0.0,5.0,97,0.00,,,0.58,97.000000,,2013-07-02 14:53:00,
2013-07-02 11:02:00,61.0,60.0,30.01,ENE,59,0.0,5.0,97,0.00,,,0.58,97.000000,,2013-07-02 15:02:00,
2013-07-02 11:11:00,61.0,60.0,30.01,ENE,58,0.0,0.0,97,0.00,,,0.58,83.000000,,2013-07-02 15:11:00,
2013-07-02 11:22:00,61.0,60.0,30.01,ENE,59,0.0,4.0,97,0.00,,,0.58,111.000000,,2013-07-02 15:22:00,
2013-07-02 11:33:00,61.0,60.0,30.01,ENE,59,0.0,4.0,97,0.00,,,0.58,111.000000,,2013-07-02 15:33:00,
2013-07-02 11:44:00,62.0,61.0,30.01,ENE,61,0.0,4.0,98,0.00,,,0.58,160.000000,,2013-07-02 15:44:00,
2013-07-02 11:53:00,62.0,61.0,30.01,ENE,61,0.0,4.0,98,0.00,,,0.58,153.000000,,2013-07-02 15:53:00,
2013-07-02 12:01:00,63.0,62.0,30.01,ENE,63,0.0,5.0,98,0.00,,,0.58,141.000000,,2013-07-02 16:01:00,
2013-07-02 12:12:00,63.0,62.0,30.01,ENE,63,0.0,5.0,98,0.00,,,0.58,141.000000,,2013-07-02 16:12:00,
2013-07-02 12:33:00,63.0,62.0,30.01,East,80,4.0,9.0,98,0.00,,,0.58,171.000000,,2013-07-02 16:33:00,
2013-07-02 12:43:00,63.0,62.0,30.01,ENE,78,2.0,5.0,98,0.00,,,0.58,211.000000,,2013-07-02 16:43:00,
2013-07-02 13:02:00,64.0,63.0,30.01,ENE,63,5.0,10.0,98,0.00,,,0.58,186.000000,,2013-07-02 17:02:00,
2013-07-02 13:12:00,64.0,63.0,30.01,ENE,59,5.0,10.0,97,0.00,,,0.58,185.000000,,2013-07-02 17:12:00,
2013-07-02 13:43:00,65.0,64.0,30.01,ENE,75,0.0,6.0,97,0.00,,,0.58,165.000000,,2013-07-02 17:43:00,
2013-07-02 13:53:00,65.0,64.0,30.01,ENE,75,4.0,5.0,97,0.00,,,0.58,172.000000,,2013-07-02 17:53:00,
2013-07-02 14:12:00,65.0,64.0,30.01,ENE,71,0.0,5.0,97,0.00,,,0.58,190.000000,,2013-07-02 18:12:00,
2013-07-02 14:23:00,66.0,65.0,30.01,ENE,71,0.0,3.0,97,0.00,,,0.58,269.000000,,2013-07-02 18:23:00,
2013-07-02 14:34:00,66.0,65.0,30.01,ENE,71,0.0,3.0,97,0.00,,,0.58,269.000000,,2013-07-02 18:34:00,
2013-07-02 14:43:00,67.0,66.0,30.00,ENE,70,1.0,3.0,96,0.00,,,0.58,202.000000,,2013-07-02 18:43:00,
2013-07-02 14:53:00,67.0,66.0,30.00,ENE,68,2.0,6.0,95,0.00,,,0.58,318.000000,,2013-07-02 18:53:00,
2013-07-02 15:01:00,67.0,66.0,30.00,ENE,68,2.0,6.0,95,0.00,,,0.58,318.000000,,2013-07-02 19:01:00,
2013-07-02 15:12:00,68.0,66.0,29.99,ENE,64,2.0,7.0,94,0.00,,,0.58,902.000000,,2013-07-02 19:12:00,
2013-07-02 15:22:00,70.0,67.0,29.99,NE,53,4.0,6.0,91,0.00,,,0.58,399.000000,,2013-07-02 19:22:00,
2013-07-02 15:34:00,70.0,67.0,29.99,NE,53,4.0,6.0,91,0.00,,,0.58,399.000000,,2013-07-02 19:34:00,
2013-07-02 15:43:00,70.0,67.0,29.99,NE,53,4.0,6.0,91,0.00,,,0.58,399.000000,,2013-07-02 19:43:00,
2013-07-02 15:53:00,72.0,67.0,29.99,NNE,21,0.0,5.0,85,0.00,,,0.58,223.000000,,2013-07-02 19:53:00,
2013-07-02 16:02:00,72.0,67.0,29.99,NNE,21,0.0,5.0,85,0.00,,,0.58,223.000000,,2013-07-02 20:02:00,
2013-07-02 16:11:00,72.0,67.0,29.99,NNE,33,5.0,6.0,85,0.00,,,0.58,928.000000,,2013-07-02 20:11:00,
2013-07-02 16:22:00,73.0,68.0,29.99,NNE,24,6.0,11.0,83,0.00,,,0.58,202.000000,,2013-07-02 20:22:00,
2013-07-02 16:33:00,73.0,68.0,29.99,NNE,24,6.0,11.0,83,0.00,,,0.58,202.000000,,2013-07-02 20:33:00,
2013-07-02 16:43:00,73.0,68.0,29.98,NNE,22,0.0,1.0,83,0.00,,,0.58,840.000000,,2013-07-02 20:43:00,
2013-07-02 16:52:00,74.0,67.0,29.97,NE,42,6.0,9.0,80,0.00,,,0.58,318.000000,,2013-07-02 20:52:00,
2013-07-02 17:02:00,74.0,67.0,29.97,NE,42,6.0,9.0,80,0.00,,,0.58,318.000000,,2013-07-02 21:02:00,
2013-07-02 17:11:00,74.0,68.0,29.97,NNE,24,1.0,7.0,82,0.00,,,0.58,153.000000,,2013-07-02 21:11:00,
2013-07-02 17:33:00,74.0,68.0,29.97,North,9,5.0,7.0,83,0.00,,,0.58,679.000000,,2013-07-02 21:33:00,
2013-07-02 17:44:00,74.0,68.0,29.97,North,5,5.0,9.0,81,0.00,,,0.58,703.000000,,2013-07-02 21:44:00,
2013-07-02 17:52:00,75.0,68.0,29.96,NNE,20,8.0,11.0,80,0.00,,,0.58,241.000000,,2013-07-02 21:52:00,
2013-07-02 18:01:00,75.0,68.0,29.96,NNE,20,8.0,11.0,80,0.00,,,0.58,241.000000,,2013-07-02 22:01:00,
2013-07-02 18:11:00,74.0,68.0,29.96,North,5,7.0,10.0,81,0.00,,,0.58,237.000000,,2013-07-02 22:11:00,
2013-07-02 18:22:00,74.0,68.0,29.96,North,10,3.0,9.0,82,0.00,,,0.58,327.000000,,2013-07-02 22:22:00,
2013-07-02 18:43:00,75.0,69.0,29.96,NNE,16,5.0,7.0,81,0.00,,,0.58,357.000000,,2013-07-02 22:43:00,
2013-07-02 18:53:00,74.0,68.0,29.96,NE,42,5.0,9.0,81,0.00,,,0.58,279.000000,,2013-07-02 22:53:00,
2013-07-02 19:01:00,74.0,68.0,29.96,NNE,25,7.0,10.0,81,0.00,,,0.58,241.000000,,2013-07-02 23:01:00,
2013-07-02 19:12:00,74.0,68.0,29.96,NNE,25,7.0,10.0,81,0.00,,,0.58,241.000000,,2013-07-02 23:12:00,
2013-07-02 19:22:00,74.0,68.0,29.96,NE,47,8.0,12.0,81,0.00,,,0.58,271.000000,,2013-07-02 23:22:00,
2013-07-02 19:33:00,74.0,68.0,29.96,NE,47,8.0,12.0,81,0.00,,,0.58,271.000000,,2013-07-02 23:33:00,
2013-07-02 19:44:00,74.0,68.0,29.97,ENE,63,9.0,13.0,83,0.00,,,0.58,265.000000,,2013-07-02 23:44:00,
2013-07-02 19:52:00,73.0,68.0,29.98,NE,53,0.0,10.0,84,0.00,,,0.58,134.000000,,2013-07-02 23:52:00,
2013-07-02 20:01:00,72.0,67.0,29.98,ENE,61,9.0,14.0,84,0.00,,,0.58,33.000000,,2013-07-03 00:01:00,
2013-07-02 20:22:00,71.0,67.0,29.98,ENE,57,1.0,14.0,86,0.00,,,0.58,60.000000,,2013-07-03 00:22:00,
2013-07-02 20:33:00,71.0,67.0,29.98,NE,46,2.0,12.0,87,0.00,,,0.58,44.000000,,2013-07-03 00:33:00,
2013-07-02 20:44:00,71.0,67.0,29.98,NE,46,2.0,12.0,87,0.00,,,0.58,44.000000,,2013-07-03 00:44:00,
2013-07-02 20:52:00,71.0,67.0,29.98,ENE,60,3.0,12.0,87,0.00,,,0.58,32.000000,,2013-07-03 00:52:00,
2013-07-02 21:01:00,71.0,67.0,29.98,ENE,60,3.0,12.0,87,0.00,,,0.58,32.000000,,2013-07-03 01:01:00,
2013-07-02 21:11:00,70.0,66.0,29.97,NE,54,3.0,11.0,88,0.00,,,0.58,26.000000,,2013-07-03 01:11:00,
2013-07-02 21:33:00,70.0,67.0,29.98,NNE,31,10.0,11.0,89,0.00,,,0.58,14.000000,,2013-07-03 01:33:00,
2013-07-02 22:05:00,70.0,67.0,29.98,ENE,67,5.0,10.0,89,0.00,,,0.58,0.000000,,2013-07-03 02:05:00,
2013-07-02 22:14:00,69.0,66.0,29.98,ENE,71,3.0,11.0,89,0.00,,,0.58,0.000000,,2013-07-03 02:14:00,
2013-07-02 22:28:00,69.0,66.0,29.98,ENE,71,3.0,11.0,89,0.00,,,0.58,0.000000,,2013-07-03 02:28:00,
2013-07-02 22:39:00,69.0,66.0,29.98,ENE,71,3.0,11.0,89,0.00,,,0.58,0.000000,,2013-07-03 02:39:00,
2013-07-02 22:44:00,68.0,65.0,29.99,NE,53,0.0,12.0,91,0.00,,,0.58,0.000000,,2013-07-03 02:44:00,
2013-07-02 23:06:00,68.0,66.0,29.99,ENE,71,4.0,12.0,92,0.00,,,0.58,0.000000,,2013-07-03 03:06:00,
2013-07-02 23:13:00,68.0,66.0,30.01,ENE,71,3.0,11.0,92,0.00,,,0.58,0.000000,,2013-07-03 03:13:00,
2013-07-02 23:36:00,68.0,66.0,30.01,ENE,71,0.0,7.0,92,0.00,,,0.58,0.000000,,2013-07-03 03:36:00,
2013-07-02 23:47:00,68.0,66.0,30.01,NE,56,3.0,10.0,93,0.00,,,0.58,0.000000,,2013-07-03 03:47:00,
2013-07-02 23:58:00,68.0,66.0,30.01,ENE,61,1.0,12.0,93,0.01,,,0.59,0.000000,,2013-07-03 03:58:00,